Weather in Novoekonomichne

Ukraine / Donetsk Region     48°19′40″N   37°19′55″E
В апреле 2022 года жителям России запретили посещать сайт meteo.paraplan.net по решению Генеральной прокуратуры. Аудитория сайта уменьшилась в 10 раз. Владельцы сайта не видят смысла в поддержке погодного сервера в таких условиях. Сайт будет закрыт в октябре.
temp.,
°C
wind,
m/s
gust,
m/s
humid.,
%
clouds,
%
prec.,
mm/h
press.,
hPa
HPBL,
m
25 september, sun
sun2500:00+9w512755 0.1 1014408
03:00+8wsw51278100 0.1 1015439
06:00+7wsw6128246 0.0 1016410
09:00+11w8136222 0.0 10161007
12:00+16w1013395 0.0 10161859
15:00+17w911325 0.0 10162174
18:00+15w6103732 0.0 1016429
21:00+11wsw3550100 0.0 101868
26 september, mon
mon2600:00+10wsw345694 0.0 101856
03:00+11sw3455100 0.0 101878
06:00+10ssw3666100 0.0 1017112
09:00+14ssw5979100 0.0 1017381
12:00+18sw7955100 0.1 10161219
15:00+20wsw5744100 0.1 10151902
18:00+18sw2346100 0.0 101558
21:00+14s4116354 0.0 1016222
27 september, tue
tue2700:00+12s41087100 0.0 1014194
03:00+12s41090100 0.0 1013229
06:00+12sse4985100 0.0 1012191
09:00+16sse4759100 0.0 1011329
12:00+20s5647100 0.0 10101026
15:00+21sse5537100 0.0 10091233
18:00+18se4747100 0.0 1008164
21:00+15se486186 0.0 1007142
28 september, wed
wed2800:00+15se41058100 0.0 1006203
03:00+16sse41048100 0.0 1004227
06:00+14s41061100 0.0 1004206
09:00+16ese3474100 0.1 1002104
12:00+17sse2667100 0.2 1003244
15:00+17sw598152 0.4 1002639
18:00+18wsw23745 0.0 100333
21:00+15ssw47859 0.5 1004118
29 september, thu
thu2900:00+14sw479240 0.2 1006129
03:00+13wnw37955 0.2 1007154
06:00+11nw37945 0.0 1009148
09:00+15nnw46670 0.0 1011409
12:00+19nw45475 0.0 10121164
15:00+20nnw454266 0.0 10121502
18:00+18nnw3352100 0.0 101446
21:00+16ne2259100 0.0 101516